Time,TemperatureF,DewpointF,PressureIn,WindDirection,WindDirectionDegrees,WindSpeedMPH,WindSpeedGustMPH,Humidity,HourlyPrecipIn,Conditions,Clouds,dailyrainin,SoftwareType,DateUTC
2013-08-10 00:00:00,57.0,-99.9,-100.00,North,-999,-999.0,-999.0,-999,0.00,,,0.16,,2013-08-10 07:00:00,
2013-08-10 00:43:00,57.0,-99.9,-100.00,North,-999,-999.0,-999.0,-999,0.00,,,0.16,,2013-08-10 07:43:00,
2013-08-10 00:52:00,57.0,-99.9,-100.00,North,-999,-999.0,-999.0,-999,0.00,,,0.16,,2013-08-10 07:52:00,
2013-08-10 01:00:00,53.0,-99.9,-100.00,North,-999,-999.0,-999.0,-999,0.00,,,0.16,,2013-08-10 08:00:00,
2013-08-10 01:32:00,53.0,-99.9,-100.00,North,-999,-999.0,-999.0,-999,0.00,,,0.16,,2013-08-10 08:32:00,
2013-08-10 01:43:00,53.0,-99.9,-100.00,North,-999,-999.0,-999.0,-999,0.00,,,0.16,,2013-08-10 08:43:00,
2013-08-10 01:53:00,53.0,-99.9,-100.00,North,-999,-999.0,-999.0,-999,0.00,,,0.16,,2013-08-10 08:53:00,
2013-08-10 02:00:00,50.0,-99.9,-100.00,North,-999,-999.0,-999.0,-999,0.00,,,0.16,,2013-08-10 09:00:00,
2013-08-10 03:00:00,50.0,-99.9,-100.00,North,-999,-999.0,-999.0,-999,0.00,,,0.16,,2013-08-10 10:00:00,
2013-08-10 03:33:00,50.0,-99.9,-100.00,North,-999,-999.0,-999.0,-999,0.00,,,0.16,,2013-08-10 10:33:00,
2013-08-10 03:44:00,50.0,-99.9,-100.00,North,-999,-999.0,-999.0,-999,0.00,,,0.16,,2013-08-10 10:44:00,
2013-08-10 03:53:00,50.0,-99.9,-100.00,North,-999,-999.0,-999.0,-999,0.00,,,0.16,,2013-08-10 10:53:00,
2013-08-10 04:00:00,49.0,-99.9,-100.00,North,-999,-999.0,-999.0,-999,0.00,,,0.16,,2013-08-10 11:00:00,
2013-08-10 04:33:00,49.0,-99.9,-100.00,North,-999,-999.0,-999.0,-999,0.00,,,0.16,,2013-08-10 11:33:00,
2013-08-10 04:43:00,49.0,-99.9,-100.00,North,-999,-999.0,-999.0,-999,0.00,,,0.16,,2013-08-10 11:43:00,
2013-08-10 04:53:00,49.0,-99.9,-100.00,North,-999,-999.0,-999.0,-999,0.00,,,0.16,,2013-08-10 11:53:00,
2013-08-10 06:00:00,47.0,-99.9,-100.00,North,-999,-999.0,-999.0,-999,0.00,,,0.16,,2013-08-10 13:00:00,
2013-08-10 06:43:00,47.0,-99.9,-100.00,North,-999,-999.0,-999.0,-999,0.00,,,0.16,,2013-08-10 13:43:00,
2013-08-10 06:52:00,47.0,-99.9,-100.00,North,-999,-999.0,-999.0,-999,0.00,,,0.16,,2013-08-10 13:52:00,
2013-08-10 07:00:00,46.0,-99.9,-100.00,North,-999,-999.0,-999.0,-999,0.00,,,0.16,,2013-08-10 14:00:00,
2013-08-10 07:33:00,46.0,-99.9,-100.00,North,-999,-999.0,-999.0,-999,0.00,,,0.16,,2013-08-10 14:33:00,
2013-08-10 07:43:00,46.0,-99.9,-100.00,North,-999,-999.0,-999.0,-999,0.00,,,0.16,,2013-08-10 14:43:00,
2013-08-10 07:53:00,46.0,-99.9,-100.00,North,-999,-999.0,-999.0,-999,0.00,,,0.16,,2013-08-10 14:53:00,
2013-08-10 08:00:00,49.0,-99.9,-100.00,North,-999,-999.0,-999.0,-999,-99.99,,,0.16,,2013-08-10 15:00:00,
2013-08-10 08:34:00,49.0,-99.9,-100.00,North,-999,-999.0,-999.0,-999,-99.99,,,0.16,,2013-08-10 15:34:00,
2013-08-10 08:43:00,49.0,-99.9,-100.00,North,-999,-999.0,-999.0,-999,-99.99,,,0.16,,2013-08-10 15:43:00,
2013-08-10 08:52:00,49.0,-99.9,-100.00,North,-999,-999.0,-999.0,-999,-99.99,,,0.16,,2013-08-10 15:52:00,
2013-08-10 10:00:00,56.0,-99.9,-100.00,North,-999,-999.0,-999.0,-999,0.01,,,0.17,,2013-08-10 17:00:00,
2013-08-10 10:33:00,54.0,-99.9,-100.00,North,-999,-999.0,-999.0,-999,-99.99,,,0.17,,2013-08-10 17:33:00,
2013-08-10 10:43:00,56.0,-99.9,-100.00,North,-999,-999.0,-999.0,-999,0.01,,,0.17,,2013-08-10 17:43:00,
2013-08-10 10:52:00,56.0,-99.9,-100.00,North,-999,-999.0,-999.0,-999,0.01,,,0.17,,2013-08-10 17:52:00,
2013-08-10 11:00:00,57.0,-99.9,-100.00,North,-999,-999.0,-999.0,-999,0.00,,,0.17,,2013-08-10 18:00:00,
2013-08-10 11:32:00,57.0,-99.9,-100.00,North,-999,-999.0,-999.0,-999,0.00,,,0.17,,2013-08-10 18:32:00,
2013-08-10 11:44:00,57.0,-99.9,-100.00,North,-999,-999.0,-999.0,-999,0.00,,,0.17,,2013-08-10 18:44:00,
2013-08-10 11:52:00,57.0,-99.9,-100.00,North,-999,-999.0,-999.0,-999,0.00,,,0.17,,2013-08-10 18:52:00,
2013-08-10 12:00:00,63.0,-99.9,-100.00,North,-999,-999.0,-999.0,-999,-99.99,,,0.16,,2013-08-10 19:00:00,
2013-08-10 12:44:00,63.0,-99.9,-100.00,North,-999,-999.0,-999.0,-999,-99.99,,,0.16,,2013-08-10 19:44:00,
2013-08-10 12:53:00,63.0,-99.9,-100.00,North,-999,-999.0,-999.0,-999,-99.99,,,0.16,,2013-08-10 19:53:00,
2013-08-10 13:00:00,64.0,-99.9,-100.00,North,-999,-999.0,-999.0,-999,0.01,,,0.17,,2013-08-10 20:00:00,
2013-08-10 13:33:00,64.0,-99.9,-100.00,North,-999,-999.0,-999.0,-999,0.01,,,0.17,,2013-08-10 20:33:00,
2013-08-10 13:43:00,64.0,-99.9,-100.00,North,-999,-999.0,-999.0,-999,0.01,,,0.17,,2013-08-10 20:43:00,
2013-08-10 13:53:00,64.0,-99.9,-100.00,North,-999,-999.0,-999.0,-999,0.01,,,0.17,,2013-08-10 20:53:00,
2013-08-10 14:00:00,68.0,-99.9,-100.00,North,-999,-999.0,-999.0,-999,-99.99,,,0.16,,2013-08-10 21:00:00,
2013-08-10 14:32:00,68.0,-99.9,-100.00,North,-999,-999.0,-999.0,-999,-99.99,,,0.16,,2013-08-10 21:32:00,
2013-08-10 14:43:00,68.0,-99.9,-100.00,North,-999,-999.0,-999.0,-999,-99.99,,,0.16,,2013-08-10 21:43:00,
2013-08-10 14:52:00,68.0,-99.9,-100.00,North,-999,-999.0,-999.0,-999,-99.99,,,0.16,,2013-08-10 21:52:00,
2013-08-10 15:00:00,74.0,-99.9,-100.00,North,-999,-999.0,-999.0,-999,0.00,,,0.16,,2013-08-10 22:00:00,
2013-08-10 15:43:00,74.0,-99.9,-100.00,North,-999,-999.0,-999.0,-999,0.00,,,0.16,,2013-08-10 22:43:00,
2013-08-10 15:53:00,74.0,-99.9,-100.00,North,-999,-999.0,-999.0,-999,0.00,,,0.16,,2013-08-10 22:53:00,
2013-08-10 16:00:00,77.0,-99.9,-100.00,North,-999,-999.0,-999.0,-999,0.00,,,0.16,,2013-08-10 23:00:00,
2013-08-10 16:33:00,77.0,-99.9,-100.00,North,-999,-999.0,-999.0,-999,0.00,,,0.16,,2013-08-10 23:33:00,
2013-08-10 16:43:00,77.0,-99.9,-100.00,North,-999,-999.0,-999.0,-999,0.00,,,0.16,,2013-08-10 23:43:00,
2013-08-10 16:53:00,77.0,-99.9,-100.00,North,-999,-999.0,-999.0,-999,0.00,,,0.16,,2013-08-10 23:53:00,
2013-08-10 17:00:00,71.0,-99.9,-100.00,North,-999,-999.0,-999.0,-999,0.00,,,0.00,,2013-08-11 00:00:00,
2013-08-10 17:32:00,71.0,-99.9,-100.00,North,-999,-999.0,-999.0,-999,0.00,,,0.00,,2013-08-11 00:32:00,
2013-08-10 17:43:00,71.0,-99.9,-100.00,North,-999,-999.0,-999.0,-999,0.00,,,0.00,,2013-08-11 00:43:00,
2013-08-10 17:52:00,71.0,-99.9,-100.00,North,-999,-999.0,-999.0,-999,0.00,,,0.00,,2013-08-11 00:52:00,
2013-08-10 18:00:00,68.0,-99.9,-100.00,North,-999,-999.0,-999.0,-999,0.03,,,0.03,,2013-08-11 01:00:00,
2013-08-10 18:32:00,68.0,-99.9,-100.00,North,-999,-999.0,-999.0,-999,0.03,,,0.03,,2013-08-11 01:32:00,
2013-08-10 18:43:00,68.0,-99.9,-100.00,North,-999,-999.0,-999.0,-999,0.03,,,0.03,,2013-08-11 01:43:00,
2013-08-10 18:54:00,68.0,-99.9,-100.00,North,-999,-999.0,-999.0,-999,0.03,,,0.03,,2013-08-11 01:54:00,
2013-08-10 19:00:00,67.0,-99.9,-100.00,North,-999,-999.0,-999.0,-999,0.00,,,0.03,,2013-08-11 02:00:00,
2013-08-10 19:33:00,67.0,-99.9,-100.00,North,-999,-999.0,-999.0,-999,0.00,,,0.03,,2013-08-11 02:33:00,
2013-08-10 19:43:00,67.0,-99.9,-100.00,North,-999,-999.0,-999.0,-999,0.00,,,0.03,,2013-08-11 02:43:00,
2013-08-10 20:00:00,61.0,-99.9,-100.00,North,-999,-999.0,-999.0,-999,0.00,,,0.03,,2013-08-11 03:00:00,
2013-08-10 20:37:00,61.0,-99.9,-100.00,North,-999,-999.0,-999.0,-999,0.00,,,0.03,,2013-08-11 03:37:00,
2013-08-10 20:48:00,61.0,-99.9,-100.00,North,-999,-999.0,-999.0,-999,0.00,,,0.03,,2013-08-11 03:48:00,
2013-08-10 21:00:00,59.0,-99.9,-100.00,North,-999,-999.0,-999.0,-999,0.00,,,0.03,,2013-08-11 04:00:00,
2013-08-10 21:32:00,59.0,-99.9,-100.00,North,-999,-999.0,-999.0,-999,0.00,,,0.03,,2013-08-11 04:32:00,
2013-08-10 21:43:00,59.0,-99.9,-100.00,North,-999,-999.0,-999.0,-999,0.00,,,0.03,,2013-08-11 04:43:00,
2013-08-10 21:53:00,59.0,-99.9,-100.00,North,-999,-999.0,-999.0,-999,0.00,,,0.03,,2013-08-11 04:53:00,
2013-08-10 22:00:00,59.0,-99.9,-100.00,North,-999,-999.0,-999.0,-999,0.00,,,0.03,,2013-08-11 05:00:00,
2013-08-10 22:39:00,59.0,-99.9,-100.00,North,-999,-999.0,-999.0,-999,0.00,,,0.03,,2013-08-11 05:39:00,
2013-08-10 22:52:00,59.0,-99.9,-100.00,North,-999,-999.0,-999.0,-999,0.00,,,0.03,,2013-08-11 05:52:00,
2013-08-10 23:00:00,58.0,-99.9,-100.00,North,-999,-999.0,-999.0,-999,0.00,,,0.03,,2013-08-11 06:00:00,
2013-08-10 23:39:00,58.0,-99.9,-100.00,North,-999,-999.0,-999.0,-999,0.00,,,0.03,,2013-08-11 06:39:00,
2013-08-10 23:51:00,58.0,-99.9,-100.00,North,-999,-999.0,-999.0,-999,0.00,,,0.03,,2013-08-11 06:51:00,
2013-08-10 23:58:00,58.0,-99.9,-100.00,North,-999,-999.0,-999.0,-999,0.00,,,0.03,,2013-08-11 06:58:00,